Time,TemperatureF,DewpointF,PressureIn,WindDirection,WindDirectionDegrees,WindSpeedMPH,WindSpeedGustMPH,Humidity,HourlyPrecipIn,Conditions,Clouds,dailyrainin,SoftwareType,DateUTC
2013-03-23 00:03:00,23.7,19.3,30.08,SE,130,0.0,0.0,83,0.00,,,0.00,Wunderground v.1.15,2013-03-23 05:03:00,
2013-03-23 00:09:00,23.6,19.2,30.08,SE,130,0.0,0.0,83,0.00,,,0.00,Wunderground v.1.15,2013-03-23 05:09:00,
2013-03-23 00:14:00,23.7,19.3,30.08,SE,130,0.0,0.0,83,0.00,,,0.00,Wunderground v.1.15,2013-03-23 05:14:00,
2013-03-23 00:21:00,23.3,18.9,30.09,SE,129,0.0,0.0,83,0.00,,,0.00,Wunderground v.1.15,2013-03-23 05:21:00,
2013-03-23 00:26:00,22.9,18.5,30.09,SE,130,0.0,0.0,83,0.00,,,0.00,Wunderground v.1.15,2013-03-23 05:26:00,
2013-03-23 00:32:00,22.4,18.0,30.10,SE,129,0.0,0.0,83,0.00,,,0.00,Wunderground v.1.15,2013-03-23 05:32:00,
2013-03-23 00:38:00,21.8,17.4,30.10,SE,130,0.0,0.0,83,0.00,,,0.00,Wunderground v.1.15,2013-03-23 05:38:00,
2013-03-23 00:43:00,21.7,17.6,30.09,SE,130,0.0,0.0,84,0.00,,,0.00,Wunderground v.1.15,2013-03-23 05:43:00,
2013-03-23 00:49:00,21.1,17.0,30.10,SE,130,0.0,0.0,84,0.00,,,0.00,Wunderground v.1.15,2013-03-23 05:49:00,
2013-03-23 00:56:00,20.0,15.7,30.11,SE,130,0.0,0.0,83,0.00,,,0.00,Wunderground v.1.15,2013-03-23 05:56:00,
2013-03-23 01:02:00,18.5,14.2,30.12,SE,130,0.0,0.0,83,0.00,,,0.00,Wunderground v.1.15,2013-03-23 06:02:00,
2013-03-23 01:07:00,17.9,13.9,30.12,SE,130,0.0,0.0,84,0.00,,,0.00,Wunderground v.1.15,2013-03-23 06:07:00,
2013-03-23 01:13:00,17.6,13.6,30.12,SE,130,0.0,0.0,84,0.00,,,0.00,Wunderground v.1.15,2013-03-23 06:13:00,
2013-03-23 01:18:00,17.6,13.9,30.12,SE,130,0.0,0.0,85,0.00,,,0.00,Wunderground v.1.15,2013-03-23 06:18:00,
2013-03-23 01:24:00,18.4,14.9,30.11,SE,130,0.0,0.0,86,0.00,,,0.00,Wunderground v.1.15,2013-03-23 06:24:00,
2013-03-23 01:29:00,19.2,15.7,30.11,SE,130,0.0,0.0,86,0.00,,,0.00,Wunderground v.1.15,2013-03-23 06:29:00,
2013-03-23 01:36:00,20.3,17.0,30.10,SE,130,0.0,0.0,87,0.00,,,0.00,Wunderground v.1.15,2013-03-23 06:36:00,
2013-03-23 01:41:00,20.9,17.6,30.11,SE,130,0.0,0.0,87,0.00,,,0.00,Wunderground v.1.15,2013-03-23 06:41:00,
2013-03-23 01:47:00,21.4,18.4,30.11,SE,130,0.0,0.0,88,0.00,,,0.00,Wunderground v.1.15,2013-03-23 06:47:00,
2013-03-23 01:53:00,21.3,18.3,30.12,SE,130,0.0,0.0,88,0.00,,,0.00,Wunderground v.1.15,2013-03-23 06:53:00,
2013-03-23 01:58:00,21.2,18.2,30.13,SE,130,0.0,0.0,88,0.00,,,0.00,Wunderground v.1.15,2013-03-23 06:58:00,
2013-03-23 02:03:00,21.2,18.2,30.13,SE,129,0.0,0.0,88,0.00,,,0.00,Wunderground v.1.15,2013-03-23 07:03:00,
2013-03-23 02:08:00,21.3,18.3,30.13,SE,130,0.0,0.0,88,0.00,,,0.00,Wunderground v.1.15,2013-03-23 07:08:00,
2013-03-23 02:13:00,21.4,18.4,30.13,SE,130,0.0,0.0,88,0.00,,,0.00,Wunderground v.1.15,2013-03-23 07:13:00,
2013-03-23 02:18:00,21.6,18.6,30.13,SE,130,0.0,0.0,88,0.00,,,0.00,Wunderground v.1.15,2013-03-23 07:18:00,
2013-03-23 02:23:00,21.9,18.9,30.13,SE,130,0.0,0.0,88,0.00,,,0.00,Wunderground v.1.15,2013-03-23 07:23:00,
2013-03-23 02:28:00,22.1,19.1,30.13,SE,129,0.0,0.0,88,0.00,,,0.00,Wunderground v.1.15,2013-03-23 07:28:00,
2013-03-23 02:33:00,22.4,19.4,30.13,SE,130,0.0,0.0,88,0.00,,,0.00,Wunderground v.1.15,2013-03-23 07:33:00,
2013-03-23 02:38:00,22.9,20.1,30.13,SE,130,0.0,0.0,89,0.00,,,0.00,Wunderground v.1.15,2013-03-23 07:38:00,
2013-03-23 02:43:00,23.2,20.4,30.13,SE,130,0.0,0.0,89,0.00,,,0.00,Wunderground v.1.15,2013-03-23 07:43:00,
2013-03-23 02:48:00,23.4,20.6,30.14,SE,130,0.0,0.0,89,0.00,,,0.00,Wunderground v.1.15,2013-03-23 07:48:00,
2013-03-23 02:53:00,23.6,20.8,30.14,SE,130,0.0,0.0,89,0.00,,,0.00,Wunderground v.1.15,2013-03-23 07:53:00,
2013-03-23 02:58:00,23.8,21.0,30.14,SE,130,0.0,0.0,89,0.00,,,0.00,Wunderground v.1.15,2013-03-23 07:58:00,
2013-03-23 03:03:00,23.9,21.1,30.14,SE,129,0.0,0.0,89,0.00,,,0.00,Wunderground v.1.15,2013-03-23 08:03:00,
2013-03-23 03:08:00,24.0,21.2,30.15,SE,130,0.0,0.0,89,0.00,,,0.00,Wunderground v.1.15,2013-03-23 08:08:00,
2013-03-23 03:13:00,24.2,21.4,30.15,SE,129,0.0,0.0,89,0.00,,,0.00,Wunderground v.1.15,2013-03-23 08:13:00,
2013-03-23 03:19:00,24.2,21.2,30.15,SE,130,0.0,0.0,88,0.00,,,0.00,Wunderground v.1.15,2013-03-23 08:19:00,
2013-03-23 03:24:00,24.2,21.4,30.15,SE,130,0.0,0.0,89,0.00,,,0.00,Wunderground v.1.15,2013-03-23 08:24:00,
2013-03-23 03:29:00,24.3,21.3,30.15,SE,130,0.0,0.0,88,0.00,,,0.00,Wunderground v.1.15,2013-03-23 08:29:00,
2013-03-23 03:34:00,24.3,21.3,30.15,SE,130,0.0,0.0,88,0.00,,,0.00,Wunderground v.1.15,2013-03-23 08:34:00,
2013-03-23 03:39:00,24.5,21.5,30.15,SE,130,0.0,0.0,88,0.00,,,0.00,Wunderground v.1.15,2013-03-23 08:39:00,
2013-03-23 03:44:00,24.7,21.7,30.14,SE,130,0.0,0.0,88,0.00,,,0.00,Wunderground v.1.15,2013-03-23 08:44:00,
2013-03-23 03:49:00,24.9,21.8,30.14,SE,130,0.0,0.0,88,0.00,,,0.00,Wunderground v.1.15,2013-03-23 08:49:00,
2013-03-23 03:54:00,24.9,21.6,30.13,SE,130,0.0,0.0,87,0.00,,,0.00,Wunderground v.1.15,2013-03-23 08:54:00,
2013-03-23 03:59:00,25.1,21.8,30.13,SE,130,0.0,0.0,87,0.00,,,0.00,Wunderground v.1.15,2013-03-23 08:59:00,
2013-03-23 04:04:00,25.1,21.8,30.13,SE,130,0.0,0.0,87,0.00,,,0.00,Wunderground v.1.15,2013-03-23 09:04:00,
2013-03-23 04:09:00,25.2,21.6,30.12,SE,129,0.0,0.0,86,0.00,,,0.00,Wunderground v.1.15,2013-03-23 09:09:00,
2013-03-23 04:14:00,25.2,21.6,30.12,SE,129,0.0,0.0,86,0.00,,,0.00,Wunderground v.1.15,2013-03-23 09:14:00,
2013-03-23 04:19:00,25.3,21.7,30.12,SE,130,0.0,0.0,86,0.00,,,0.00,Wunderground v.1.15,2013-03-23 09:19:00,
2013-03-23 04:24:00,25.4,21.8,30.11,SE,130,0.0,0.0,86,0.00,,,0.00,Wunderground v.1.15,2013-03-23 09:24:00,
2013-03-23 04:29:00,25.5,21.9,30.11,SE,130,0.0,3.0,86,0.00,,,0.00,Wunderground v.1.15,2013-03-23 09:29:00,
2013-03-23 04:34:00,25.4,21.8,30.11,SE,130,3.0,4.0,86,0.00,,,0.00,Wunderground v.1.15,2013-03-23 09:34:00,
2013-03-23 04:39:00,25.3,21.7,30.11,SE,130,3.0,3.0,86,0.00,,,0.00,Wunderground v.1.15,2013-03-23 09:39:00,
2013-03-23 04:44:00,25.2,21.6,30.11,SE,129,0.0,5.0,86,0.00,,,0.00,Wunderground v.1.15,2013-03-23 09:44:00,
2013-03-23 04:49:00,25.1,21.8,30.10,SE,130,4.0,4.0,87,0.00,,,0.00,Wunderground v.1.15,2013-03-23 09:49:00,
2013-03-23 04:55:00,24.9,21.6,30.10,SE,130,6.0,6.0,87,0.00,,,0.00,Wunderground v.1.15,2013-03-23 09:55:00,
2013-03-23 05:01:00,24.8,21.5,30.11,SE,130,3.0,4.0,87,0.00,,,0.00,Wunderground v.1.15,2013-03-23 10:01:00,
2013-03-23 05:07:00,24.7,21.4,30.11,SE,130,0.0,6.0,87,0.00,,,0.00,Wunderground v.1.15,2013-03-23 10:07:00,
2013-03-23 05:12:00,24.6,21.3,30.11,SE,130,0.0,3.0,87,0.00,,,0.00,Wunderground v.1.15,2013-03-23 10:12:00,
2013-03-23 05:17:00,24.5,20.9,30.11,SE,130,3.0,4.0,86,0.00,,,0.00,Wunderground v.1.15,2013-03-23 10:17:00,
2013-03-23 05:22:00,24.4,20.8,30.11,SE,129,5.0,7.0,86,0.00,,,0.00,Wunderground v.1.15,2013-03-23 10:22:00,
2013-03-23 05:27:00,24.3,20.7,30.11,SE,130,1.0,7.0,86,0.00,,,0.00,Wunderground v.1.15,2013-03-23 10:27:00,
2013-03-23 05:32:00,24.3,20.7,30.11,SE,129,2.0,5.0,86,0.00,,,0.00,Wunderground v.1.15,2013-03-23 10:32:00,
2013-03-23 05:37:00,24.3,20.7,30.11,SE,129,0.0,7.0,86,0.00,,,0.00,Wunderground v.1.15,2013-03-23 10:37:00,
2013-03-23 05:42:00,24.3,20.7,30.12,SE,130,2.0,3.0,86,0.00,,,0.00,Wunderground v.1.15,2013-03-23 10:42:00,
2013-03-23 05:47:00,24.2,20.6,30.13,SE,130,1.0,4.0,86,0.00,,,0.00,Wunderground v.1.15,2013-03-23 10:47:00,
2013-03-23 05:52:00,24.2,20.6,30.13,SE,130,0.0,2.0,86,0.00,,,0.00,Wunderground v.1.15,2013-03-23 10:52:00,
2013-03-23 05:57:00,24.2,20.3,30.13,SE,130,0.0,2.0,85,0.00,,,0.00,Wunderground v.1.15,2013-03-23 10:57:00,
2013-03-23 06:02:00,24.1,20.5,30.13,SE,129,0.0,0.0,86,0.00,,,0.00,Wunderground v.1.15,2013-03-23 11:02:00,
2013-03-23 06:07:00,24.1,20.2,30.13,SE,130,0.0,0.0,85,0.00,,,0.00,Wunderground v.1.15,2013-03-23 11:07:00,
2013-03-23 06:13:00,24.1,20.2,30.13,SE,130,0.0,0.0,85,0.00,,,0.00,Wunderground v.1.15,2013-03-23 11:13:00,
2013-03-23 06:18:00,24.1,20.2,30.13,SE,130,0.0,0.0,85,0.00,,,0.00,Wunderground v.1.15,2013-03-23 11:18:00,
2013-03-23 06:23:00,24.1,20.2,30.14,SE,130,0.0,0.0,85,0.00,,,0.00,Wunderground v.1.15,2013-03-23 11:23:00,
2013-03-23 06:28:00,24.1,20.2,30.14,SE,129,0.0,0.0,85,0.00,,,0.00,Wunderground v.1.15,2013-03-23 11:28:00,
2013-03-23 06:33:00,24.1,20.2,30.14,SE,130,0.0,0.0,85,0.00,,,0.00,Wunderground v.1.15,2013-03-23 11:33:00,
2013-03-23 06:38:00,24.1,20.2,30.16,SE,130,0.0,0.0,85,0.00,,,0.00,Wunderground v.1.15,2013-03-23 11:38:00,
2013-03-23 06:43:00,24.0,19.9,30.15,SE,130,0.0,0.0,84,0.00,,,0.00,Wunderground v.1.15,2013-03-23 11:43:00,
2013-03-23 06:48:00,24.0,19.9,30.15,SE,130,0.0,0.0,84,0.00,,,0.00,Wunderground v.1.15,2013-03-23 11:48:00,
2013-03-23 06:53:00,23.9,19.8,30.15,SE,130,0.0,0.0,84,0.00,,,0.00,Wunderground v.1.15,2013-03-23 11:53:00,
2013-03-23 06:58:00,23.9,19.8,30.15,SE,130,0.0,0.0,84,0.00,,,0.00,Wunderground v.1.15,2013-03-23 11:58:00,
2013-03-23 07:03:00,23.9,19.8,30.14,SE,129,0.0,0.0,84,0.00,,,0.00,Wunderground v.1.15,2013-03-23 12:03:00,
2013-03-23 07:08:00,24.0,19.9,30.14,SE,130,1.0,1.0,84,0.00,,,0.00,Wunderground v.1.15,2013-03-23 12:08:00,
2013-03-23 07:13:00,24.0,19.9,30.14,SE,130,0.0,0.0,84,0.00,,,0.00,Wunderground v.1.15,2013-03-23 12:13:00,
2013-03-23 07:18:00,24.1,20.0,30.14,SE,130,0.0,0.0,84,0.00,,,0.00,Wunderground v.1.15,2013-03-23 12:18:00,
2013-03-23 07:23:00,24.1,20.0,30.14,SE,130,1.0,4.0,84,0.00,,,0.00,Wunderground v.1.15,2013-03-23 12:23:00,
2013-03-23 07:28:00,24.1,20.2,30.15,SE,130,0.0,4.0,85,0.00,,,0.00,Wunderground v.1.15,2013-03-23 12:28:00,
2013-03-23 07:33:00,24.2,20.1,30.14,SE,130,3.0,5.0,84,0.00,,,0.00,Wunderground v.1.15,2013-03-23 12:33:00,
2013-03-23 07:38:00,24.1,20.0,30.14,SE,130,3.0,5.0,84,0.00,,,0.00,Wunderground v.1.15,2013-03-23 12:38:00,
2013-03-23 07:43:00,24.1,20.0,30.15,SE,130,4.0,4.0,84,0.00,,,0.00,Wunderground v.1.15,2013-03-23 12:43:00,
2013-03-23 07:48:00,24.0,19.9,30.15,SE,130,3.0,6.0,84,0.00,,,0.00,Wunderground v.1.15,2013-03-23 12:48:00,
2013-03-23 07:54:00,24.1,20.2,30.14,SE,130,3.0,5.0,85,0.00,,,0.00,Wunderground v.1.15,2013-03-23 12:54:00,
2013-03-23 07:59:00,24.0,20.1,30.14,SE,130,7.0,7.0,85,0.00,,,0.00,Wunderground v.1.15,2013-03-23 12:59:00,
2013-03-23 08:04:00,23.9,20.0,30.15,SE,130,6.0,7.0,85,0.00,,,0.00,Wunderground v.1.15,2013-03-23 13:04:00,
2013-03-23 08:09:00,23.9,20.0,30.15,SE,130,5.0,7.0,85,0.00,,,0.00,Wunderground v.1.15,2013-03-23 13:09:00,
2013-03-23 08:14:00,23.8,19.9,30.15,SE,130,6.0,6.0,85,0.00,,,0.00,Wunderground v.1.15,2013-03-23 13:14:00,
2013-03-23 08:19:00,23.8,19.9,30.15,SE,130,3.0,6.0,85,0.00,,,0.00,Wunderground v.1.15,2013-03-23 13:19:00,
2013-03-23 08:24:00,23.8,19.9,30.15,SE,130,3.0,5.0,85,0.00,,,0.00,Wunderground v.1.15,2013-03-23 13:24:00,
2013-03-23 08:29:00,23.7,19.9,30.15,SE,130,4.0,6.0,85,0.00,,,0.00,Wunderground v.1.15,2013-03-23 13:29:00,
2013-03-23 08:34:00,23.6,19.5,30.15,SE,130,2.0,4.0,84,0.00,,,0.00,Wunderground v.1.15,2013-03-23 13:34:00,
2013-03-23 08:39:00,23.6,19.5,30.15,SE,130,2.0,5.0,84,0.00,,,0.00,Wunderground v.1.15,2013-03-23 13:39:00,
2013-03-23 08:44:00,23.6,19.5,30.15,SE,130,3.0,7.0,84,0.00,,,0.00,Wunderground v.1.15,2013-03-23 13:44:00,
2013-03-23 08:49:00,23.7,19.6,30.15,SE,130,7.0,8.0,84,0.00,,,0.00,Wunderground v.1.15,2013-03-23 13:49:00,
2013-03-23 08:54:00,23.7,19.9,30.15,SE,130,5.0,6.0,85,0.00,,,0.00,Wunderground v.1.15,2013-03-23 13:54:00,
2013-03-23 08:59:00,23.7,19.9,30.15,SE,130,1.0,6.0,85,0.00,,,0.00,Wunderground v.1.15,2013-03-23 13:59:00,
2013-03-23 09:04:00,23.8,19.7,30.16,SE,129,2.0,7.0,84,0.00,,,0.00,Wunderground v.1.15,2013-03-23 14:04:00,
2013-03-23 09:09:00,23.6,19.2,30.16,SE,130,5.0,9.0,83,0.00,,,0.00,Wunderground v.1.15,2013-03-23 14:09:00,
2013-03-23 09:14:00,23.6,19.2,30.17,SE,130,2.0,5.0,83,0.00,,,0.00,Wunderground v.1.15,2013-03-23 14:14:00,
2013-03-23 09:19:00,23.6,18.9,30.17,SE,130,3.0,5.0,82,0.00,,,0.00,Wunderground v.1.15,2013-03-23 14:19:00,
2013-03-23 09:24:00,23.6,18.9,30.17,SE,130,2.0,5.0,82,0.00,,,0.00,Wunderground v.1.15,2013-03-23 14:24:00,
2013-03-23 09:29:00,23.6,18.6,30.16,SE,130,2.0,5.0,81,0.00,,,0.00,Wunderground v.1.15,2013-03-23 14:29:00,
2013-03-23 09:34:00,23.6,18.6,30.16,SE,130,4.0,6.0,81,0.00,,,0.00,Wunderground v.1.15,2013-03-23 14:34:00,
2013-03-23 09:39:00,23.8,18.8,30.16,SE,130,2.0,6.0,81,0.00,,,0.00,Wunderground v.1.15,2013-03-23 14:39:00,
2013-03-23 09:44:00,23.9,18.9,30.16,SE,130,3.0,5.0,81,0.00,,,0.00,Wunderground v.1.15,2013-03-23 14:44:00,
2013-03-23 09:49:00,24.0,18.7,30.17,SE,130,3.0,3.0,80,0.00,,,0.00,Wunderground v.1.15,2013-03-23 14:49:00,
2013-03-23 09:55:00,24.0,18.4,30.17,SE,130,3.0,4.0,79,0.00,,,0.00,Wunderground v.1.15,2013-03-23 14:55:00,
2013-03-23 10:00:00,24.1,18.2,30.17,SE,130,0.0,1.0,78,0.00,,,0.00,Wunderground v.1.15,2013-03-23 15:00:00,
2013-03-23 10:05:00,24.2,17.7,30.17,SE,130,7.0,7.0,76,0.00,,,0.00,Wunderground v.1.15,2013-03-23 15:05:00,
2013-03-23 10:10:00,24.1,17.6,30.17,SE,130,0.0,2.0,76,0.00,,,0.00,Wunderground v.1.15,2013-03-23 15:10:00,
2013-03-23 10:15:00,24.2,17.4,30.17,SE,130,0.0,3.0,75,0.00,,,0.00,Wunderground v.1.15,2013-03-23 15:15:00,
2013-03-23 10:20:00,24.3,17.5,30.17,SE,130,0.0,0.0,75,0.00,,,0.00,Wunderground v.1.15,2013-03-23 15:20:00,
2013-03-23 10:25:00,24.4,17.6,30.17,SE,130,3.0,5.0,75,0.00,,,0.00,Wunderground v.1.15,2013-03-23 15:25:00,
2013-03-23 10:30:00,24.3,17.5,30.17,SE,130,2.0,3.0,75,0.00,,,0.00,Wunderground v.1.15,2013-03-23 15:30:00,
2013-03-23 10:35:00,24.3,17.2,30.17,SE,130,2.0,5.0,74,0.00,,,0.00,Wunderground v.1.15,2013-03-23 15:35:00,
2013-03-23 10:40:00,24.5,17.7,30.18,SE,130,3.0,4.0,75,0.00,,,0.00,Wunderground v.1.15,2013-03-23 15:40:00,
2013-03-23 10:45:00,24.6,17.5,30.18,SE,130,3.0,4.0,74,0.00,,,0.00,Wunderground v.1.15,2013-03-23 15:45:00,
2013-03-23 10:50:00,24.8,17.7,30.18,SE,130,0.0,1.0,74,0.00,,,0.00,Wunderground v.1.15,2013-03-23 15:50:00,
2013-03-23 10:55:00,25.1,18.0,30.18,SE,130,2.0,2.0,74,0.00,,,0.00,Wunderground v.1.15,2013-03-23 15:55:00,
2013-03-23 11:01:00,25.4,17.6,30.19,SE,130,0.0,0.0,72,0.00,,,0.00,Wunderground v.1.15,2013-03-23 16:01:00,
2013-03-23 11:07:00,25.2,17.4,30.19,SE,130,0.0,0.0,72,0.00,,,0.00,Wunderground v.1.15,2013-03-23 16:07:00,
2013-03-23 11:12:00,25.3,17.2,30.18,SE,130,1.0,2.0,71,0.00,,,0.00,Wunderground v.1.15,2013-03-23 16:12:00,
2013-03-23 11:17:00,25.3,16.9,30.18,SE,130,3.0,3.0,70,0.00,,,0.00,Wunderground v.1.15,2013-03-23 16:17:00,
2013-03-23 11:22:00,25.5,17.4,30.17,SE,130,4.0,7.0,71,0.00,,,0.00,Wunderground v.1.15,2013-03-23 16:22:00,
2013-03-23 11:27:00,25.5,17.1,30.16,SE,130,1.0,9.0,70,0.00,,,0.00,Wunderground v.1.15,2013-03-23 16:27:00,
2013-03-23 11:32:00,26.0,17.9,30.15,SE,130,3.0,4.0,71,0.00,,,0.00,Wunderground v.1.15,2013-03-23 16:32:00,
2013-03-23 11:37:00,26.2,17.4,30.16,SE,130,2.0,6.0,69,0.00,,,0.00,Wunderground v.1.15,2013-03-23 16:37:00,
2013-03-23 11:42:00,26.6,17.8,30.17,SE,130,1.0,2.0,69,0.00,,,0.00,Wunderground v.1.15,2013-03-23 16:42:00,
2013-03-23 11:47:00,26.7,17.2,30.16,SE,130,2.0,3.0,67,0.00,,,0.00,Wunderground v.1.15,2013-03-23 16:47:00,
2013-03-23 11:53:00,26.6,17.5,30.16,SE,130,4.0,5.0,68,0.00,,,0.00,Wunderground v.1.15,2013-03-23 16:53:00,
2013-03-23 11:58:00,26.6,17.5,30.17,SE,130,1.0,6.0,68,0.00,,,0.00,Wunderground v.1.15,2013-03-23 16:58:00,
2013-03-23 12:03:00,26.5,17.0,30.17,SE,129,1.0,3.0,67,0.00,,,0.00,Wunderground v.1.15,2013-03-23 17:03:00,
2013-03-23 12:08:00,26.6,17.5,30.17,SE,130,0.0,3.0,68,0.00,,,0.00,Wunderground v.1.15,2013-03-23 17:08:00,
2013-03-23 12:13:00,26.7,17.2,30.18,SE,130,0.0,3.0,67,0.00,,,0.00,Wunderground v.1.15,2013-03-23 17:13:00,
2013-03-23 12:18:00,26.8,17.3,30.18,SE,130,2.0,4.0,67,0.00,,,0.00,Wunderground v.1.15,2013-03-23 17:18:00,
2013-03-23 12:23:00,27.0,17.5,30.17,SE,130,2.0,3.0,67,0.00,,,0.00,Wunderground v.1.15,2013-03-23 17:23:00,
2013-03-23 12:28:00,27.0,17.1,30.17,SE,130,3.0,4.0,66,0.00,,,0.00,Wunderground v.1.15,2013-03-23 17:28:00,
2013-03-23 12:33:00,26.9,17.0,30.18,SE,130,3.0,3.0,66,0.00,,,0.00,Wunderground v.1.15,2013-03-23 17:33:00,
2013-03-23 12:38:00,27.0,17.5,30.18,SE,129,1.0,4.0,67,0.00,,,0.00,Wunderground v.1.15,2013-03-23 17:38:00,
2013-03-23 12:43:00,27.3,17.4,30.18,SE,130,2.0,2.0,66,0.00,,,0.00,Wunderground v.1.15,2013-03-23 17:43:00,
2013-03-23 12:48:00,27.2,17.0,30.17,SE,130,2.0,3.0,65,0.00,,,0.00,Wunderground v.1.15,2013-03-23 17:48:00,
2013-03-23 12:53:00,27.2,17.0,30.17,SE,130,1.0,3.0,65,0.00,,,0.00,Wunderground v.1.15,2013-03-23 17:53:00,
2013-03-23 12:58:00,27.3,17.1,30.16,SE,130,2.0,6.0,65,0.00,,,0.00,Wunderground v.1.15,2013-03-23 17:58:00,
2013-03-23 13:03:00,27.5,17.3,30.16,SE,129,2.0,3.0,65,0.00,,,0.00,Wunderground v.1.15,2013-03-23 18:03:00,
2013-03-23 13:08:00,27.9,17.6,30.16,SE,130,2.0,4.0,65,0.00,,,0.00,Wunderground v.1.15,2013-03-23 18:08:00,
2013-03-23 13:13:00,28.1,17.5,30.16,SE,130,2.0,3.0,64,0.00,,,0.00,Wunderground v.1.15,2013-03-23 18:13:00,
2013-03-23 13:18:00,28.0,17.4,30.16,SE,129,1.0,3.0,64,0.00,,,0.00,Wunderground v.1.15,2013-03-23 18:18:00,
2013-03-23 13:23:00,27.8,17.2,30.16,SE,130,1.0,3.0,64,0.00,,,0.00,Wunderground v.1.15,2013-03-23 18:23:00,
2013-03-23 13:28:00,27.9,16.9,30.16,SE,130,0.0,4.0,63,0.00,,,0.00,Wunderground v.1.15,2013-03-23 18:28:00,
2013-03-23 13:33:00,27.8,16.5,30.16,SE,130,3.0,3.0,62,0.00,,,0.00,Wunderground v.1.15,2013-03-23 18:33:00,
2013-03-23 13:38:00,27.8,16.8,30.16,SE,130,2.0,6.0,63,0.00,,,0.00,Wunderground v.1.15,2013-03-23 18:38:00,
2013-03-23 13:43:00,27.8,16.8,30.16,SE,130,1.0,4.0,63,0.00,,,0.00,Wunderground v.1.15,2013-03-23 18:43:00,
2013-03-23 13:48:00,28.0,17.4,30.15,SE,130,0.0,4.0,64,0.00,,,0.00,Wunderground v.1.15,2013-03-23 18:48:00,
2013-03-23 13:53:00,28.4,17.8,30.15,SE,130,1.0,4.0,64,0.00,,,0.00,Wunderground v.1.15,2013-03-23 18:53:00,
2013-03-23 13:58:00,28.9,17.9,30.15,SE,130,3.0,5.0,63,0.00,,,0.00,Wunderground v.1.15,2013-03-23 18:58:00,
2013-03-23 14:03:00,29.3,17.9,30.14,SE,130,4.0,4.0,62,0.00,,,0.00,Wunderground v.1.15,2013-03-23 19:03:00,
2013-03-23 14:08:00,29.6,18.2,30.14,SE,130,2.0,5.0,62,0.00,,,0.00,Wunderground v.1.15,2013-03-23 19:08:00,
2013-03-23 14:13:00,29.8,18.0,30.14,SE,130,2.0,7.0,61,0.00,,,0.00,Wunderground v.1.15,2013-03-23 19:13:00,
2013-03-23 14:18:00,29.8,17.6,30.13,SE,130,2.0,7.0,60,0.00,,,0.00,Wunderground v.1.15,2013-03-23 19:18:00,
2013-03-23 14:23:00,29.8,17.6,30.13,SE,130,2.0,8.0,60,0.00,,,0.00,Wunderground v.1.15,2013-03-23 19:23:00,
2013-03-23 14:28:00,30.3,18.5,30.12,SE,130,3.0,8.0,61,0.00,,,0.00,Wunderground v.1.15,2013-03-23 19:28:00,
2013-03-23 14:33:00,30.8,18.5,30.12,SE,130,1.0,6.0,60,0.00,,,0.00,Wunderground v.1.15,2013-03-23 19:33:00,
2013-03-23 14:38:00,30.3,18.1,30.12,SE,130,8.0,9.0,60,0.00,,,0.00,Wunderground v.1.15,2013-03-23 19:38:00,
2013-03-23 14:43:00,30.1,17.9,30.11,SE,130,5.0,8.0,60,0.00,,,0.00,Wunderground v.1.15,2013-03-23 19:43:00,
2013-03-23 14:49:00,30.1,17.9,30.11,SE,129,3.0,11.0,60,0.00,,,0.00,Wunderground v.1.15,2013-03-23 19:49:00,
2013-03-23 14:54:00,29.9,18.1,30.11,SE,130,4.0,9.0,61,0.00,,,0.00,Wunderground v.1.15,2013-03-23 19:54:00,
2013-03-23 14:59:00,29.8,17.6,30.11,SE,130,5.0,9.0,60,0.00,,,0.00,Wunderground v.1.15,2013-03-23 19:59:00,
2013-03-23 15:04:00,29.8,18.0,30.11,ESE,103,1.0,12.0,61,0.00,,,0.00,Wunderground v.1.15,2013-03-23 20:04:00,
2013-03-23 15:09:00,29.8,18.7,30.11,ESE,103,2.0,12.0,63,0.00,,,0.00,Wunderground v.1.15,2013-03-23 20:09:00,
2013-03-23 15:14:00,30.3,18.8,30.11,ESE,103,2.0,8.0,62,0.00,,,0.00,Wunderground v.1.15,2013-03-23 20:14:00,
2013-03-23 15:19:00,30.2,18.4,30.12,ESE,103,1.0,8.0,61,0.00,,,0.00,Wunderground v.1.15,2013-03-23 20:19:00,
2013-03-23 15:24:00,30.4,18.5,30.11,ESE,102,2.0,4.0,61,0.00,,,0.00,Wunderground v.1.15,2013-03-23 20:24:00,
2013-03-23 15:29:00,30.8,18.9,30.11,ESE,103,4.0,10.0,61,0.00,,,0.00,Wunderground v.1.15,2013-03-23 20:29:00,
2013-03-23 15:34:00,30.7,18.8,30.11,East,99,2.0,6.0,61,0.00,,,0.00,Wunderground v.1.15,2013-03-23 20:34:00,
2013-03-23 15:39:00,30.7,19.2,30.11,East,99,1.0,6.0,62,0.00,,,0.00,Wunderground v.1.15,2013-03-23 20:39:00,
2013-03-23 15:44:00,30.6,19.1,30.11,East,99,5.0,9.0,62,0.00,,,0.00,Wunderground v.1.15,2013-03-23 20:44:00,
2013-03-23 15:49:00,30.4,18.5,30.11,East,99,5.0,9.0,61,0.00,,,0.00,Wunderground v.1.15,2013-03-23 20:49:00,
2013-03-23 15:54:00,30.3,18.8,30.11,East,99,8.0,8.0,62,0.00,,,0.00,Wunderground v.1.15,2013-03-23 20:54:00,
2013-03-23 15:59:00,30.6,19.1,30.11,East,99,6.0,8.0,62,0.00,,,0.00,Wunderground v.1.15,2013-03-23 20:59:00,
2013-03-23 16:04:00,30.6,18.7,30.11,East,99,3.0,8.0,61,0.00,,,0.00,Wunderground v.1.15,2013-03-23 21:04:00,
2013-03-23 16:09:00,30.7,19.2,30.12,East,99,6.0,9.0,62,0.00,,,0.00,Wunderground v.1.15,2013-03-23 21:09:00,
2013-03-23 16:14:00,30.8,19.3,30.12,East,99,5.0,6.0,62,0.00,,,0.00,Wunderground v.1.15,2013-03-23 21:14:00,
2013-03-23 16:19:00,30.9,19.0,30.12,East,99,2.0,6.0,61,0.00,,,0.00,Wunderground v.1.15,2013-03-23 21:19:00,
2013-03-23 16:24:00,31.2,19.3,30.12,East,99,2.0,7.0,61,0.00,,,0.00,Wunderground v.1.15,2013-03-23 21:24:00,
2013-03-23 16:29:00,31.4,19.1,30.12,East,99,3.0,7.0,60,0.00,,,0.00,Wunderground v.1.15,2013-03-23 21:29:00,
2013-03-23 16:34:00,31.4,19.1,30.12,East,99,2.0,8.0,60,0.00,,,0.00,Wunderground v.1.15,2013-03-23 21:34:00,
2013-03-23 16:39:00,31.3,19.4,30.11,East,99,5.0,8.0,61,0.00,,,0.00,Wunderground v.1.15,2013-03-23 21:39:00,
2013-03-23 16:44:00,30.9,18.6,30.12,East,99,2.0,9.0,60,0.00,,,0.00,Wunderground v.1.15,2013-03-23 21:44:00,
2013-03-23 16:49:00,31.1,19.2,30.12,East,99,3.0,9.0,61,0.00,,,0.00,Wunderground v.1.15,2013-03-23 21:49:00,
2013-03-23 16:54:00,31.0,19.1,30.12,East,99,2.0,8.0,61,0.00,,,0.00,Wunderground v.1.15,2013-03-23 21:54:00,
2013-03-23 16:59:00,31.3,19.0,30.12,East,99,3.0,8.0,60,0.00,,,0.00,Wunderground v.1.15,2013-03-23 21:59:00,
2013-03-23 17:04:00,31.4,19.1,30.12,East,99,6.0,9.0,60,0.00,,,0.00,Wunderground v.1.15,2013-03-23 22:04:00,
2013-03-23 17:09:00,30.9,18.6,30.12,East,99,2.0,4.0,60,0.00,,,0.00,Wunderground v.1.15,2013-03-23 22:09:00,
2013-03-23 17:14:00,30.8,18.9,30.12,East,99,6.0,8.0,61,0.00,,,0.00,Wunderground v.1.15,2013-03-23 22:14:00,
2013-03-23 17:20:00,30.8,19.3,30.12,East,99,2.0,3.0,62,0.00,,,0.00,Wunderground v.1.15,2013-03-23 22:20:00,
2013-03-23 17:25:00,30.6,19.1,30.12,East,99,0.0,9.0,62,0.00,,,0.00,Wunderground v.1.15,2013-03-23 22:25:00,
2013-03-23 17:30:00,30.7,19.6,30.12,East,99,6.0,6.0,63,0.00,,,0.00,Wunderground v.1.15,2013-03-23 22:30:00,
2013-03-23 17:35:00,31.0,19.5,30.11,East,99,0.0,7.0,62,0.00,,,0.00,Wunderground v.1.15,2013-03-23 22:35:00,
2013-03-23 17:40:00,31.0,19.9,30.11,East,99,7.0,7.0,63,0.00,,,0.00,Wunderground v.1.15,2013-03-23 22:40:00,
2013-03-23 17:45:00,30.8,19.7,30.11,East,99,0.0,10.0,63,0.00,,,0.00,Wunderground v.1.15,2013-03-23 22:45:00,
2013-03-23 17:50:00,31.0,20.2,30.11,East,99,0.0,3.0,64,0.00,,,0.00,Wunderground v.1.15,2013-03-23 22:50:00,
2013-03-23 17:55:00,31.2,19.7,30.11,East,99,0.0,5.0,62,0.00,,,0.00,Wunderground v.1.15,2013-03-23 22:55:00,
2013-03-23 18:00:00,31.4,19.9,30.11,East,99,1.0,2.0,62,0.00,,,0.00,Wunderground v.1.15,2013-03-23 23:00:00,
2013-03-23 18:05:00,31.3,19.8,30.11,East,99,6.0,7.0,62,0.00,,,0.00,Wunderground v.1.15,2013-03-23 23:05:00,
2013-03-23 18:10:00,31.0,19.5,30.11,East,99,9.0,9.0,62,0.00,,,0.00,Wunderground v.1.15,2013-03-23 23:10:00,
2013-03-23 18:15:00,30.7,20.0,30.12,East,99,5.0,9.0,64,0.00,,,0.00,Wunderground v.1.15,2013-03-23 23:15:00,
2013-03-23 18:20:00,30.6,19.9,30.12,East,99,0.0,2.0,64,0.00,,,0.00,Wunderground v.1.15,2013-03-23 23:20:00,
2013-03-23 18:26:00,30.5,20.1,30.12,East,99,1.0,2.0,65,0.00,,,0.00,Wunderground v.1.15,2013-03-23 23:26:00,
2013-03-23 18:31:00,30.3,19.6,30.12,East,94,1.0,1.0,64,0.00,,,0.00,Wunderground v.1.15,2013-03-23 23:31:00,
2013-03-23 18:37:00,30.0,19.3,30.12,East,94,2.0,7.0,64,0.00,,,0.00,Wunderground v.1.15,2013-03-23 23:37:00,
2013-03-23 18:42:00,29.8,19.5,30.12,East,94,6.0,7.0,65,0.00,,,0.00,Wunderground v.1.15,2013-03-23 23:42:00,
2013-03-23 18:47:00,29.6,19.6,30.13,East,94,0.0,7.0,66,0.00,,,0.00,Wunderground v.1.15,2013-03-23 23:47:00,
2013-03-23 18:52:00,29.6,19.6,30.12,East,94,3.0,6.0,66,0.00,,,0.00,Wunderground v.1.15,2013-03-23 23:52:00,
2013-03-23 18:57:00,29.4,19.4,30.13,East,94,3.0,6.0,66,0.00,,,0.00,Wunderground v.1.15,2013-03-23 23:57:00,
2013-03-23 19:02:00,29.3,20.0,30.13,East,94,5.0,5.0,68,0.00,,,0.00,Wunderground v.1.15,2013-03-24 00:02:00,
2013-03-23 19:07:00,29.2,19.9,30.13,East,94,2.0,10.0,68,0.00,,,0.00,Wunderground v.1.15,2013-03-24 00:07:00,
2013-03-23 19:12:00,29.0,20.1,30.13,East,94,2.0,5.0,69,0.00,,,0.00,Wunderground v.1.15,2013-03-24 00:12:00,
2013-03-23 19:17:00,28.7,20.1,30.13,East,92,1.0,8.0,70,0.00,,,0.00,Wunderground v.1.15,2013-03-24 00:17:00,
2013-03-23 19:22:00,28.5,20.3,30.13,East,92,0.0,3.0,71,0.00,,,0.00,Wunderground v.1.15,2013-03-24 00:22:00,
2013-03-23 19:27:00,28.3,20.4,30.13,East,91,1.0,3.0,72,0.00,,,0.00,Wunderground v.1.15,2013-03-24 00:27:00,
2013-03-23 19:32:00,28.1,20.2,30.13,East,92,0.0,5.0,72,0.00,,,0.00,Wunderground v.1.15,2013-03-24 00:32:00,
2013-03-23 19:37:00,27.9,20.4,30.13,East,92,0.0,6.0,73,0.00,,,0.00,Wunderground v.1.15,2013-03-24 00:37:00,
2013-03-23 19:42:00,27.8,20.3,30.13,East,92,0.0,2.0,73,0.00,,,0.00,Wunderground v.1.15,2013-03-24 00:42:00,
2013-03-23 19:47:00,27.6,20.4,30.13,East,92,1.0,6.0,74,0.00,,,0.00,Wunderground v.1.15,2013-03-24 00:47:00,
2013-03-23 19:52:00,27.5,20.3,30.13,East,92,0.0,6.0,74,0.00,,,0.00,Wunderground v.1.15,2013-03-24 00:52:00,
2013-03-23 19:57:00,27.3,20.1,30.14,East,91,0.0,6.0,74,0.00,,,0.00,Wunderground v.1.15,2013-03-24 00:57:00,
2013-03-23 20:02:00,27.1,20.2,30.14,East,91,0.0,1.0,75,0.00,,,0.00,Wunderground v.1.15,2013-03-24 01:02:00,
2013-03-23 20:07:00,26.9,20.0,30.14,East,91,1.0,7.0,75,0.00,,,0.00,Wunderground v.1.15,2013-03-24 01:07:00,
2013-03-23 20:12:00,26.7,20.1,30.14,East,92,0.0,2.0,76,0.00,,,0.00,Wunderground v.1.15,2013-03-24 01:12:00,
2013-03-23 20:17:00,26.6,19.7,30.14,East,91,1.0,7.0,75,0.00,,,0.00,Wunderground v.1.15,2013-03-24 01:17:00,
2013-03-23 20:22:00,26.5,20.0,30.14,East,92,2.0,6.0,76,0.00,,,0.00,Wunderground v.1.15,2013-03-24 01:22:00,
2013-03-23 20:27:00,26.3,19.8,30.14,East,92,0.0,6.0,76,0.00,,,0.00,Wunderground v.1.15,2013-03-24 01:27:00,
2013-03-23 20:32:00,26.2,19.7,30.14,East,92,0.0,2.0,76,0.00,,,0.00,Wunderground v.1.15,2013-03-24 01:32:00,
2013-03-23 20:37:00,26.1,19.9,30.15,East,92,5.0,6.0,77,0.00,,,0.00,Wunderground v.1.15,2013-03-24 01:37:00,
2013-03-23 20:42:00,25.9,19.7,30.15,East,92,1.0,2.0,77,0.00,,,0.00,Wunderground v.1.15,2013-03-24 01:42:00,
2013-03-23 20:47:00,25.7,19.5,30.15,East,92,1.0,8.0,77,0.00,,,0.00,Wunderground v.1.15,2013-03-24 01:47:00,
2013-03-23 20:52:00,25.6,19.7,30.15,East,92,3.0,7.0,78,0.00,,,0.00,Wunderground v.1.15,2013-03-24 01:52:00,
2013-03-23 20:57:00,25.5,19.6,30.15,East,92,2.0,7.0,78,0.00,,,0.00,Wunderground v.1.15,2013-03-24 01:57:00,
2013-03-23 21:02:00,25.4,19.5,30.15,East,92,0.0,2.0,78,0.00,,,0.00,Wunderground v.1.15,2013-03-24 02:02:00,
2013-03-23 21:07:00,25.4,19.8,30.15,East,92,1.0,2.0,79,0.00,,,0.00,Wunderground v.1.15,2013-03-24 02:07:00,
2013-03-23 21:12:00,25.4,19.5,30.15,East,92,2.0,2.0,78,0.00,,,0.00,Wunderground v.1.15,2013-03-24 02:12:00,
2013-03-23 21:17:00,25.4,19.5,30.15,East,91,0.0,3.0,78,0.00,,,0.00,Wunderground v.1.15,2013-03-24 02:17:00,
2013-03-23 21:22:00,25.3,19.1,30.15,East,91,0.0,6.0,77,0.00,,,0.00,Wunderground v.1.15,2013-03-24 02:22:00,
2013-03-23 21:28:00,25.2,19.0,30.16,East,92,0.0,6.0,77,0.00,,,0.00,Wunderground v.1.15,2013-03-24 02:28:00,
2013-03-23 21:33:00,25.2,19.0,30.15,East,91,0.0,6.0,77,0.00,,,0.00,Wunderground v.1.15,2013-03-24 02:33:00,
2013-03-23 21:38:00,25.1,18.9,30.15,East,92,0.0,8.0,77,0.00,,,0.00,Wunderground v.1.15,2013-03-24 02:38:00,
2013-03-23 21:43:00,25.1,18.9,30.16,East,92,1.0,9.0,77,0.00,,,0.00,Wunderground v.1.15,2013-03-24 02:43:00,
2013-03-23 21:48:00,24.9,19.0,30.16,East,92,2.0,10.0,78,0.00,,,0.00,Wunderground v.1.15,2013-03-24 02:48:00,
2013-03-23 21:53:00,24.8,18.9,30.16,East,92,2.0,7.0,78,0.00,,,0.00,Wunderground v.1.15,2013-03-24 02:53:00,
2013-03-23 21:58:00,24.7,18.8,30.16,East,92,0.0,7.0,78,0.00,,,0.00,Wunderground v.1.15,2013-03-24 02:58:00,
2013-03-23 22:03:00,24.6,18.7,30.16,East,91,8.0,8.0,78,0.00,,,0.00,Wunderground v.1.15,2013-03-24 03:03:00,
2013-03-23 22:08:00,24.4,18.5,30.16,East,92,5.0,8.0,78,0.00,,,0.00,Wunderground v.1.15,2013-03-24 03:08:00,
2013-03-23 22:13:00,24.3,18.4,30.16,East,92,3.0,3.0,78,0.00,,,0.00,Wunderground v.1.15,2013-03-24 03:13:00,
2013-03-23 22:18:00,24.2,18.3,30.16,East,92,1.0,7.0,78,0.00,,,0.00,Wunderground v.1.15,2013-03-24 03:18:00,
2013-03-23 22:23:00,24.1,17.9,30.16,East,91,0.0,5.0,77,0.00,,,0.00,Wunderground v.1.15,2013-03-24 03:23:00,
2013-03-23 22:28:00,24.0,17.8,30.16,East,92,0.0,6.0,77,0.00,,,0.00,Wunderground v.1.15,2013-03-24 03:28:00,
2013-03-23 22:33:00,24.0,17.8,30.16,East,91,0.0,5.0,77,0.00,,,0.00,Wunderground v.1.15,2013-03-24 03:33:00,
2013-03-23 22:38:00,24.0,17.8,30.16,East,92,0.0,5.0,77,0.00,,,0.00,Wunderground v.1.15,2013-03-24 03:38:00,
2013-03-23 22:43:00,24.0,17.8,30.16,East,91,0.0,3.0,77,0.00,,,0.00,Wunderground v.1.15,2013-03-24 03:43:00,
2013-03-23 22:48:00,23.9,17.7,30.16,East,92,3.0,3.0,77,0.00,,,0.00,Wunderground v.1.15,2013-03-24 03:48:00,
2013-03-23 22:53:00,23.9,17.7,30.16,East,91,0.0,2.0,77,0.00,,,0.00,Wunderground v.1.15,2013-03-24 03:53:00,
2013-03-23 22:58:00,23.8,17.6,30.16,East,92,1.0,7.0,77,0.00,,,0.00,Wunderground v.1.15,2013-03-24 03:58:00,
2013-03-23 23:00:00,23.8,17.6,30.16,East,92,0.0,1.0,77,0.00,,,0.00,Wunderground v.1.15,2013-03-24 04:00:00,
2013-03-23 23:02:00,23.7,17.5,30.16,East,91,0.0,1.0,77,0.00,,,0.00,Wunderground v.1.15,2013-03-24 04:02:00,
2013-03-23 23:07:00,23.7,17.5,30.16,East,91,0.0,6.0,77,0.00,,,0.00,Wunderground v.1.15,2013-03-24 04:07:00,
2013-03-23 23:12:00,23.6,17.4,30.16,East,91,0.0,1.0,77,0.00,,,0.00,Wunderground v.1.15,2013-03-24 04:12:00,
2013-03-23 23:17:00,23.6,17.4,30.16,East,92,0.0,6.0,77,0.00,,,0.00,Wunderground v.1.15,2013-03-24 04:17:00,
2013-03-23 23:22:00,23.5,17.3,30.16,East,92,0.0,6.0,77,0.00,,,0.00,Wunderground v.1.15,2013-03-24 04:22:00,
2013-03-23 23:27:00,23.4,17.6,30.15,East,92,0.0,6.0,78,0.00,,,0.00,Wunderground v.1.15,2013-03-24 04:27:00,
2013-03-23 23:32:00,23.4,17.6,30.15,East,92,2.0,2.0,78,0.00,,,0.00,Wunderground v.1.15,2013-03-24 04:32:00,
2013-03-23 23:37:00,23.3,17.5,30.15,East,92,5.0,5.0,78,0.00,,,0.00,Wunderground v.1.15,2013-03-24 04:37:00,
2013-03-23 23:42:00,23.2,17.1,30.15,East,91,1.0,5.0,77,0.00,,,0.00,Wunderground v.1.15,2013-03-24 04:42:00,
2013-03-23 23:47:00,23.1,17.0,30.15,East,92,3.0,7.0,77,0.00,,,0.00,Wunderground v.1.15,2013-03-24 04:47:00,
2013-03-23 23:52:00,23.0,16.9,30.15,East,92,2.0,6.0,77,0.00,,,0.00,Wunderground v.1.15,2013-03-24 04:52:00,
2013-03-23 23:57:00,22.9,16.5,30.15,East,92,3.0,6.0,76,0.00,,,0.00,Wunderground v.1.15,2013-03-24 04:57:00,